Regional Weather Roundup
Issued by NWS

Home | Current Version | Previous Version | Graphics & Text | Print | Product List | Glossary On
Versions: 1 2 3 4 5 6 7 8 9 10 11 12 13 14 15 16 17 18 19 20 21 22 23 24 25 26 27 28 29 30 31 32 33 34 35 36 37 38 39 40 41 42 43 44 45 46 47 48 49 50
000
ASUS43 KMPX 200110
RWRMN
WEATHER ROUNDUP FOR MINNESOTA
NATIONAL WEATHER SERVICE TWIN CITIES/CHANHASSEN MN
800 PM CDT TUE SEP 19 2017


NOTE: "FAIR" INDICATES FEW OR NO CLOUDS BELOW 12,000 FEET WITH NO
SIGNIFICANT WEATHER AND/OR OBSTRUCTIONS TO VISIBILITY. N/A MEANS
CURRENT SKY AND/OR WEATHER CONDITIONS ARE NOT AVAILABLE.

MNZ060>063-068>070-200200-
   Twin Cities Metro

CITY           SKY/WX    TMP DP  RH WIND       PRES   REMARKS
TWIN CITIES    CLOUDY    75  63  66 SE15      29.69S
ST PAUL        CLOUDY    73  64  73 SE10      29.70F
CRYSTAL        CLOUDY    75  59  57 SE13G23   29.67S
BLAINE         MOCLDY    75  64  69 SE9       29.69F
LAKEVILLE      CLOUDY    70  63  78 SE8       29.70R
EDEN PRAIRIE   CLOUDY    74  63  68 SE15      29.67S
SOUTH ST PAUL  CLOUDY    73  62  67 SE6       29.70S
LAKE ELMO      FAIR      72  63  73 SE9       29.73S
$$
MNZ001>005-007-008-013>017-022>024-027-028-200200-
   Northwest Minnesota

CITY           SKY/WX    TMP DP  RH WIND       PRES   REMARKS
BEMIDJI        CLOUDY    67  61  79 SE18G24   29.58F
HALLOCK        LGT RAIN  66  64  94 E22G35    29.42F
ROSEAU         LGT RAIN  66  61  82 SE10      29.58F
WARROAD        CLOUDY    64  61  88 E9        29.61F
THIEF RVR FALL LGT RAIN  68  61  78 E17G25    29.49F
CROOKSTON      RAIN      70  63  78 S3        29.51R
FOSSTON        CLOUDY    66  59  77 SE15G26   29.48F
DETROIT LAKES  CLOUDY    70  63  78 SE23G35   29.49S
MOORHEAD       LGT RAIN  72  64  78 S18       29.45S
PARK RAPIDS    CLOUDY    69  62  78 SE16      29.56F
MAHNOMEN       MOCLDY    71  62  74 SE28G40   29.46F
$$
MNZ006-009>011-018-025>026-200200-
   North Central Minnesota

CITY           SKY/WX    TMP DP  RH WIND       PRES   REMARKS
BAUDETTE       CLOUDY    66  60  81 E14       29.63F
FLAG ISLAND    CLOUDY    66  59  77 SE8       29.62F
INTL FALLS     CLOUDY    66  58  75 SE14      29.72S
WASKISH        CLOUDY    66  61  82 SE10      29.63F
BIG FORK       CLOUDY    66  61  82 E12G18    29.69F
LONGVILLE      CLOUDY    66  63  88 E7        29.64F
GRAND RAPIDS   CLOUDY    65  59  81 SE10G18   29.72F
CRANE LAKE     CLOUDY    61  57  88 CALM      29.79S
ORR            CLOUDY    63  55  77 SE9G17    29.73F
COOK           CLOUDY    63  55  77 SE10      29.76F
WALKER         CLOUDY    67  61  79 E13G18    29.61F
$$
MNZ012-019>021-037-200200-
   Northeast Minnesota

CITY           SKY/WX    TMP DP  RH WIND       PRES   REMARKS
DULUTH         CLOUDY    59  57  93 E15       29.79F
ELY            CLOUDY    59  52  77 SE12      29.82S
HIBBING        CLOUDY    60  55  83 SE10G23   29.76F
EVELETH        CLOUDY    60  56  87 E7        29.79F
DULUTH HARBOR  CLOUDY    61  59  94 NE25      29.79F
TWO HARBORS    CLOUDY    63  57  82 E14       29.80F
GRAND MARAIS     N/A     63  54  72 NE15G22   29.87F
G MARAIS ARPRT CLOUDY    57  48  72 E12G20    29.91F
$$
MNZ029>031-032-039>041-046>048-054>057-064-200200-
   West Central Minnesota

CITY           SKY/WX    TMP DP  RH WIND       PRES   REMARKS
FERGUS FALLS   CLOUDY    73  64  73 S24G30    29.49R
WHEATON        PTCLDY    75  64  69 SE20G29   29.49F
MORRIS         CLOUDY    73  66  78 SE18G25   29.53S
ALEXANDRIA     CLOUDY    71  64  78 SE18G30   29.57F
ELBOW LAKE     CLOUDY    72  66  81 E22G30    29.52S
WADENA         CLOUDY    70  63  78 SE18G28   29.54F
GLENWOOD       CLOUDY    72  64  78 SE16G23   29.58F
APPLETON       CLOUDY    75  64  69 SE10G17   29.54R
BENSON         PTCLDY    73  64  73 S17G25    29.57R
ORTONVILLE     MOCLDY    73  66  78 NE14G20   29.50F
MADISON        CLOUDY    79  68  69 SE13G21   29.53F
WILLMAR        FAIR      73  66  78 SE20G26   29.59F
$$
MNZ033>034-036-042>043-049>051-058-059-200200-
   Central Minnesota

CITY           SKY/WX    TMP DP  RH WIND       PRES   REMARKS
ST CLOUD       PTCLDY    72  62  71 SE13      29.65F
SAUK CENTRE    FAIR      71  63  76 SE15G21   29.60F
PAYNESVILLE    CLOUDY    73  65  75 SE13G20   29.62S
AITKIN         CLOUDY    68  61  77 E12G20    29.67F
PINE RIVER     CLOUDY    66  59  77 SE17G28   29.65F
BRAINERD       CLOUDY    69  61  75 SE10G22   29.64F
STAPLES        CLOUDY    70  61  73 SE12G22   29.58F
LONG PRAIRIE   FAIR      70  61  73 E10G22    29.61S
LITTLE FALLS   CLOUDY    70  55  60 SE14G20   29.63F
LITCHFIELD     CLOUDY    73  64  73 SE14G20   29.64S
BUFFALO        CLOUDY    73  61  66 E12G17    29.67S
MAPLE LAKE     PTCLDY    73  64  73 SE7G16    29.67R
HUTCHINSON     CLOUDY    73  65  77 SE12      29.65S
$$
MNZ037-044-045-052-053-200200-
   East Central Minnesota

CITY           SKY/WX    TMP DP  RH WIND       PRES   REMARKS
PRINCETON      CLOUDY    73  64  73 E9G16     29.67F
MORA           CLOUDY    68  61  77 SE12      29.72S
CAMBRIDGE      CLOUDY    73  61  64 SE9       29.70F
RUSH CITY      CLOUDY    70  62  75 SE5       29.72F
MOOSE LAKE     CLOUDY    61  55  82 NE5       29.73F
HINCKLEY       FAIR      70  63  78 E10       29.73S
CLOQUET        CLOUDY    59  55  88 E9        29.77F
MCGREGOR       CLOUDY    63  59  88 E10G16    29.71F
$$
MNZ071>073-080-081-089-090-097-098-200200-
   Southwest Minnesota

CITY           SKY/WX    TMP DP  RH WIND       PRES   REMARKS
MONTEVIDEO     CLOUDY    75  66  73 S13       29.56R
GRANITE FALLS  CLOUDY    77  68  73 SE15      29.58R
CANBY          CLOUDY    77  68  73 E15       29.54F
MARSHALL       CLOUDY    76  68  76 S16       29.56R
REDWOOD FALLS  PTCLDY    75  64  68 SE20G29   29.57F
OLIVIA         CLOUDY    73  64  73 SE14G23   29.58F
PIPESTONE      CLOUDY    75  66  73 S15       29.57F
WINDOM         PTCLDY    75  64  69 SE20      29.61R
WORTHINGTON    PTCLDY    74  67  78 S10G17    29.62R
JACKSON        CLOUDY    73  64  73 SE14G25   29.63R
TRACY          CLOUDY    76  69  79 S14G23    29.58R
SLAYTON        MOCLDY    75  67  77 SE14      29.60R
$$
MNZ065>067-074>077-082>085-091>093-200200-
   South Central Minnesota

CITY           SKY/WX    TMP DP  RH WIND       PRES   REMARKS
MANKATO        CLOUDY    73  64  73 SE15      29.66R
NEW ULM        MOCLDY    73  64  73 SE16G24   29.62S
ST JAMES       CLOUDY    73  64  73 SE17G25   29.63S
FAIRMONT       CLOUDY    74  66  76 SE21G28   29.64S
GLENCOE        CLOUDY    74  67  76 SE12G18   29.65S
FARIBAULT      CLOUDY    73  61  64 SE13G23   29.70R
OWATONNA       CLOUDY    73  63  68 SE13G23   29.70S
WASECA         CLOUDY    72  63  73 SE14G22   29.71R
ALBERT LEA     CLOUDY    75  64  69 SE15G24   29.71S
$$
MNZ078>079-086>088-094>096-200200-
   Southeast Minnesota

CITY           SKY/WX    TMP DP  RH WIND       PRES   REMARKS
ROCHESTER      CLOUDY    70  62  76 SE14      29.76F
RED WING       CLOUDY    73  61  64 SE13G21   29.72S
STANTON        CLOUDY    74  62  66 SE10      29.69S
DODGE CENTER   CLOUDY    72  61  68 SE13G18   29.74S
WINONA         CLEAR     73  63  68 CALM      29.78R
AUSTIN         CLOUDY    72  61  68 SE9       29.74R
PRESTON        CLEAR     70  61  72 SE9       29.79S
$$
ABBREVIATIONS USED IN REMARKS
   TC - TEMPERATURES IN CELSIUS
  WCI - WIND CHILL INDEX
   HX - HEAT INDEX
  VSB - VISIBILITY
$$



USA.gov is the U.S. government's official web portal to all federal, state and local government web resources and services.